HST 1 20580U 90037B 26123.41159367 .00007643 00000+0 24592-3 0 9998 2 20580 28.4763 26.4721 0001951 14.1929 345.8722 15.30259061781707 POLAR 1 23802U 96013A 26122.59367861 .00000051 00000+0 00000+0 0 9996 2 23802 79.8087 227.5815 6424782 210.6433 87.0975 1.29845867144261 SWAS 1 25560U 98071A 26123.61630168 .00003896 00000+0 25012-3 0 9996 2 25560 69.8971 342.4326 0007759 302.0557 57.9853 15.09316903490540 CXO 1 25867U 99040B 26124.41836995 .00000649 00000+0 00000+0 0 9997 2 25867 55.4609 117.9254 7906762 310.5237 359.9228 0.37801428 17151 XMM-NEWTON 1 25989U 99066A 26125.46606464 .00000066 00000+0 00000+0 0 9995 2 25989 64.7084 283.5315 4687262 65.6551 0.1620 0.50129944 22797 TERRA 1 25994U 99068A 26123.59003108 .00000422 00000+0 94944-4 0 9992 2 25994 97.9492 174.8969 0002787 40.5126 116.0243 14.61067338403099 CLUSTER II-FM7 (SAMBA) 1 26410U 00041A 26125.74573274 .00005977 00000+0 00000+0 0 9999 2 26410 149.7335 43.3752 9000062 260.0677 0.6327 0.44858910 20117 CLUSTER II-FM8 (TANGO) 1 26464U 00045B 26125.64298307 .00006195 00000+0 00000+0 0 9995 2 26464 149.9972 44.3576 9005728 260.8928 1.2633 0.44404743 20108 ODIN 1 26702U 01007A 26123.58669518 .00108212 00000+0 11175-2 0 9997 2 26702 97.3943 162.0739 0000511 338.3939 21.7299 15.64423617382403 TIMED 1 26998U 01055B 26123.58159187 .00001214 00000+0 11404-3 0 9993 2 26998 74.0676 324.8269 0001420 200.6800 159.4327 14.95186481324156 CORIOLIS 1 27640U 03001A 26123.59266196 .00000106 00000+0 70610-4 0 9995 2 27640 98.7140 131.1567 0013670 346.3191 13.7613 14.19932349207890 SORCE 1 27651U 03004A 26123.57207482 .00002913 00000+0 22052-3 0 9995 2 27651 39.9891 156.1738 0015948 92.1293 268.1327 15.03468834265189 MOST 1 27843U 03031D 26123.57963474 .00000070 00000+0 52031-4 0 9991 2 27843 98.7058 131.9262 0010347 27.4401 332.7321 14.21313141184375 SCISAT 1 1 27858U 03036A 26123.65535224 .00000773 00000+0 10346-3 0 9991 2 27858 73.9294 259.8156 0007920 325.9986 34.0682 14.81398585224858 SWIFT 1 28485U 04047A 26123.21881887 .00049517 00000+0 48555-3 0 9994 2 28485 20.5512 170.6425 0002644 65.8239 294.2483 15.64258500179801 HINODE (SOLAR-B) 1 29479U 06041A 26123.55802207 .00000807 00000+0 14716-3 0 9991 2 29479 98.0571 140.3664 0018866 71.5998 288.7257 14.68558333 48327 SHIJIAN-6 02A (SJ-6 02A) 1 29505U 06046A 26123.62396221 .00008204 00000+0 42521-3 0 9992 2 29505 97.6396 164.3654 0001554 318.6877 41.4238 15.16438735 65519 SHIJIAN-6 02B (SJ-6 02B) 1 29506U 06046B 26123.62415993 .00002167 00000+0 17325-3 0 9997 2 29506 97.7140 152.9611 0010983 210.7225 149.3357 15.01245690 64057 FGRST (GLAST) 1 33053U 08029A 26123.43770244 .00003427 00000+0 12500-3 0 9994 2 33053 25.5806 155.1379 0008449 156.1464 203.9467 15.23706116989004 SDO 1 36395U 10005A 26123.41278168 -.00000063 00000+0 00000+0 0 9991 2 36395 34.5604 87.0170 0000942 27.6125 153.4950 1.00272977 59614 CRYOSAT 2 1 36508U 10013A 26123.62800576 .00000227 00000+0 55680-4 0 9993 2 36508 92.0301 266.4839 0002654 90.5135 269.6377 14.51908724851619 X-SAT 1 37389U 11015C 26123.57468524 .00000021 00000+0 26546-4 0 9992 2 37389 98.3485 102.7312 0015111 111.4260 248.8534 14.25192221781323 GCOM-W1 (SHIZUKU) 1 38337U 12025A 26123.62469443 .00000530 00000+0 12757-3 0 9998 2 38337 98.2002 64.8625 0001399 94.6032 78.2831 14.57128199742542 NUSTAR 1 38358U 12031A 26123.66670139 .00009307 00000+0 52699-3 0 9998 2 38358 6.0276 7.9766 0007556 174.7704 106.8647 15.08381916 5580 NEOSSAT 1 39089U 13009D 26123.47056656 .00000155 00000+0 68176-4 0 9997 2 39089 98.4169 304.5685 0011475 25.7474 334.4281 14.35810766690322 BRITE-AUSTRIA 1 39091U 13009F 26123.42174325 .00000193 00000+0 80241-4 0 9998 2 39091 98.3985 303.9678 0010538 20.6402 339.5209 14.36524026690620 IRIS 1 39197U 13033A 26123.58369010 .00001195 00000+0 14308-3 0 9999 2 39197 97.9361 322.9968 0025871 104.1843 256.2249 14.85792708693750 HISAKI (SPRINT-A) 1 39253U 13049A 26123.57124854 .00000129 00000+0 88893-4 0 9990 2 39253 29.7193 86.8364 0136593 15.1914 345.2706 13.55539054625367 CASSIOPE 1 39265U 13055A 26123.56341700 .00027034 -46074-6 31281-3 0 9991 2 39265 80.9127 120.7656 0302102 212.0589 146.1960 15.22135077660873 STSAT-3 1 39422U 13066G 26123.62887844 .00001623 00000+0 12672-3 0 9999 2 39422 97.6183 94.2680 0009649 167.6747 192.4716 15.02492298677519 SWARM B 1 39451U 13067A 26123.61221428 .00003362 00000+0 12081-3 0 9997 2 39451 87.7466 355.8548 0002518 97.6518 262.5017 15.28291216676438 SWARM A 1 39452U 13067B 26123.55669183 .00012562 00000+0 22320-3 0 9994 2 39452 87.3326 72.8039 0003605 88.4880 271.6793 15.50038480699332 SWARM C 1 39453U 13067C 26123.55662389 .00012613 00000+0 22409-3 0 9991 2 39453 87.3327 71.3853 0003622 88.3874 271.7801 15.50040342699299 BRITE-CA1 (TORONTO) 1 40020U 14033L 26123.60136174 .00000996 00000+0 15677-3 0 9991 2 40020 97.9672 253.3700 0079829 60.2548 300.6572 14.72613862635656 OCO 2 1 40059U 14035A 26123.58832660 .00000905 00000+0 21101-3 0 9994 2 40059 98.1997 65.5686 0001313 86.2621 273.8728 14.57074633629556 BRITE-PL2 (HEWELIUSZ) 1 40119U 14049B 26123.58156935 .00002612 00000+0 24758-3 0 9998 2 40119 97.9044 235.2560 0012675 255.5005 104.4808 14.94426583634785 MMS 1 1 40482U 15011A 26123.66670139 -.00000558 00000+0 00000+0 0 9995 2 40482 71.5477 349.4062 8360525 166.4238 77.0853 0.28365292 1376 MMS 2 1 40483U 15011B 26123.66670139 -.00000558 00000+0 00000+0 0 9996 2 40483 71.5481 349.4083 8361331 166.4297 77.0702 0.28365161 1374 MMS 3 1 40484U 15011C 26123.66670139 -.00000558 00000+0 00000+0 0 9997 2 40484 71.5508 349.4129 8360557 166.4241 77.0713 0.28365115 1375 MMS 4 1 40485U 15011D 26123.66670139 -.00000558 00000+0 00000+0 0 9998 2 40485 71.5478 349.4084 8360116 166.4317 77.0589 0.28365103 1375 ASTROSAT 1 40930U 15052A 26122.81516272 .00001772 00000+0 13429-3 0 9992 2 40930 5.9962 121.9142 0007472 108.1204 251.9737 14.82428126573080 DAMPE 1 41173U 15078A 26123.58562652 .00001794 00000+0 63075-4 0 9995 2 41173 97.4564 128.8361 0010478 229.9772 130.0550 15.30674721577728 PISAT 1 41784U 16059B 26123.59527519 .00001089 00000+0 19311-3 0 9997 2 41784 97.8185 125.9669 0028781 351.1073 8.9620 14.68903540513192 HXMT (HUIYAN) 1 42758U 17034A 26123.33270682 .00005605 00000+0 27797-3 0 9996 2 42758 43.0146 72.7203 0032560 222.5709 137.2614 15.18067170490845 FLYING LAPTOP 1 42831U 17042G 26123.58694883 .00003562 00000+0 28370-3 0 9995 2 42831 97.4489 280.8991 0017731 276.2824 83.6381 15.00859423479767 ZHANGHENG 1-01 (CSES-1) 1 43194U 18015C 26123.59551642 .00008587 00000+0 39123-3 0 9995 2 43194 97.6836 288.3751 0017633 61.5220 298.7789 15.20785282457862 SALSAT 1 46495U 20068K 26123.52606125 .00008713 00000+0 31035-3 0 9998 2 46495 97.8858 123.8966 0011719 98.8202 261.4364 15.29141113308531 IXPE 1 49954U 21121A 26123.58335648 .00011618 00000+0 64090-3 0 9992 2 49954 0.2304 295.0761 0007180 121.1212 47.2587 15.09846405 5930